Location: Gälforsberget
(66.6500°N, 22.4167°E)
Time: 06:48:07
(UTC+00:00)

Cosmos 1626 Rocket - Pass Details

Date: 11 April 2026
Orbit: 596 x 624 km, 82.5° (Epoch: 12 May)

Event Time Altitude Azimuth Distance (km) Brightness Sun altitude
Rises 22:25:07 0° 340° (NNW) 2,871 8.4 -14.8°
Reaches altitude 10° 22:27:23 10° 345° (NNW) 1,960 7.4 -14.8°
Maximum altitude 22:31:38 55° 63° (ENE) 731 4.1 -14.8°
Enters shadow 22:34:52 17° 138° (SE) 1,557 5.2 -14.8°
